Time,TemperatureF,DewpointF,PressureIn,WindDirection,WindDirectionDegrees,WindSpeedMPH,WindSpeedGustMPH,Humidity,HourlyPrecipIn,Conditions,Clouds,dailyrainin,SoftwareType,DateUTC
2013-05-11 00:03:00,70.0,62.0,29.88,North,0,0.0,3.0,77,0.00,,,0.00,,2013-05-11 04:03:00,
2013-05-11 00:12:00,71.0,63.0,29.89,North,0,0.0,4.0,76,0.00,,,0.00,,2013-05-11 04:12:00,
2013-05-11 00:23:00,71.0,63.0,29.89,North,0,0.0,4.0,76,0.00,,,0.00,,2013-05-11 04:23:00,
2013-05-11 00:33:00,71.0,63.0,29.88,WSW,243,1.0,5.0,76,0.00,,,0.00,,2013-05-11 04:33:00,
2013-05-11 00:43:00,71.0,63.0,29.89,WNW,297,1.0,4.0,76,0.00,,,0.00,,2013-05-11 04:43:00,
2013-05-11 00:52:00,71.0,63.0,29.89,WNW,297,1.0,4.0,76,0.00,,,0.00,,2013-05-11 04:52:00,
2013-05-11 01:02:00,71.0,63.0,29.88,South,191,1.0,4.0,77,0.00,,,0.00,,2013-05-11 05:02:00,
2013-05-11 01:12:00,71.0,64.0,29.88,North,0,0.0,7.0,78,0.00,,,0.00,,2013-05-11 05:12:00,
2013-05-11 01:22:00,71.0,64.0,29.88,North,0,0.0,7.0,78,0.00,,,0.00,,2013-05-11 05:22:00,
2013-05-11 01:32:00,71.0,63.0,29.88,SW,236,1.0,9.0,77,0.00,,,0.00,,2013-05-11 05:32:00,
2013-05-11 01:42:00,71.0,63.0,29.88,North,0,0.0,6.0,76,0.00,,,0.00,,2013-05-11 05:42:00,
2013-05-11 01:52:00,71.0,63.0,29.88,North,0,0.0,6.0,76,0.00,,,0.00,,2013-05-11 05:52:00,
2013-05-11 02:02:00,71.0,63.0,29.88,North,0,0.0,5.0,76,0.00,,,0.00,,2013-05-11 06:02:00,
2013-05-11 02:12:00,71.0,63.0,29.88,North,0,0.0,5.0,76,0.00,,,0.00,,2013-05-11 06:12:00,
2013-05-11 02:21:00,70.0,62.0,29.88,North,0,0.0,2.0,77,0.00,,,0.00,,2013-05-11 06:21:00,
2013-05-11 02:32:00,70.0,63.0,29.88,North,0,0.0,2.0,78,0.00,,,0.00,,2013-05-11 06:32:00,
2013-05-11 02:42:00,70.0,63.0,29.87,SW,223,1.0,7.0,79,0.00,,,0.00,,2013-05-11 06:42:00,
2013-05-11 02:52:00,70.0,63.0,29.87,SW,223,1.0,7.0,79,0.00,,,0.00,,2013-05-11 06:52:00,
2013-05-11 03:02:00,70.0,63.0,29.87,SSE,157,1.0,9.0,78,0.00,,,0.00,,2013-05-11 07:02:00,
2013-05-11 03:12:00,70.0,63.0,29.86,South,175,1.0,5.0,78,0.00,,,0.00,,2013-05-11 07:12:00,
2013-05-11 03:21:00,70.0,63.0,29.86,South,175,1.0,5.0,78,0.00,,,0.00,,2013-05-11 07:21:00,
2013-05-11 03:32:00,70.0,62.0,29.86,South,169,2.0,9.0,77,0.00,,,0.00,,2013-05-11 07:32:00,
2013-05-11 03:42:00,70.0,63.0,29.86,North,0,0.0,4.0,78,0.00,,,0.00,,2013-05-11 07:42:00,
2013-05-11 03:52:00,70.0,63.0,29.86,North,0,0.0,4.0,78,0.00,,,0.00,,2013-05-11 07:52:00,
2013-05-11 04:02:00,69.0,62.0,29.85,North,0,0.0,4.0,78,0.00,,,0.00,,2013-05-11 08:02:00,
2013-05-11 04:12:00,69.0,62.0,29.85,North,0,0.0,4.0,78,0.00,,,0.00,,2013-05-11 08:12:00,
2013-05-11 04:21:00,69.0,62.0,29.85,North,0,0.0,4.0,78,0.00,,,0.00,,2013-05-11 08:21:00,
2013-05-11 04:32:00,69.0,62.0,29.85,North,0,0.0,3.0,78,0.00,,,0.00,,2013-05-11 08:32:00,
2013-05-11 04:42:00,68.0,61.0,29.85,North,0,0.0,5.0,78,0.00,,,0.00,,2013-05-11 08:42:00,
2013-05-11 04:52:00,68.0,61.0,29.85,North,0,0.0,5.0,78,0.00,,,0.00,,2013-05-11 08:52:00,
2013-05-11 05:01:00,68.0,61.0,29.85,North,0,0.0,6.0,78,0.00,,,0.00,,2013-05-11 09:01:00,
2013-05-11 05:11:00,68.0,61.0,29.85,North,0,0.0,6.0,78,0.00,,,0.00,,2013-05-11 09:11:00,
2013-05-11 05:21:00,68.0,61.0,29.85,North,0,0.0,5.0,77,0.00,,,0.00,,2013-05-11 09:21:00,
2013-05-11 05:32:00,68.0,61.0,29.85,North,0,0.0,6.0,77,0.00,,,0.00,,2013-05-11 09:32:00,
2013-05-11 05:42:00,68.0,61.0,29.85,North,0,0.0,3.0,77,0.00,,,0.00,,2013-05-11 09:42:00,
2013-05-11 05:52:00,68.0,61.0,29.85,North,0,0.0,3.0,77,0.00,,,0.00,,2013-05-11 09:52:00,
2013-05-11 06:03:00,67.0,60.0,29.85,WNW,285,1.0,5.0,77,0.00,,,0.00,,2013-05-11 10:03:00,
2013-05-11 06:12:00,67.0,60.0,29.85,WNW,285,1.0,5.0,77,0.00,,,0.00,,2013-05-11 10:12:00,
2013-05-11 06:22:00,67.0,60.0,29.85,North,0,0.0,4.0,77,0.00,,,0.00,,2013-05-11 10:22:00,
2013-05-11 06:33:00,67.0,60.0,29.85,North,0,0.0,2.0,77,0.00,,,0.00,,2013-05-11 10:33:00,
2013-05-11 06:42:00,66.0,59.0,29.85,North,0,0.0,7.0,78,0.00,,,0.00,,2013-05-11 10:42:00,
2013-05-11 06:52:00,66.0,59.0,29.85,North,0,0.0,7.0,78,0.00,,,0.00,,2013-05-11 10:52:00,
2013-05-11 07:02:00,66.0,59.0,29.86,West,274,1.0,3.0,78,0.00,,,0.00,,2013-05-11 11:02:00,
2013-05-11 07:12:00,66.0,59.0,29.86,West,264,1.0,6.0,79,0.00,,,0.00,,2013-05-11 11:12:00,
2013-05-11 07:22:00,66.0,59.0,29.86,West,264,1.0,6.0,79,0.00,,,0.00,,2013-05-11 11:22:00,
2013-05-11 07:32:00,66.0,60.0,29.86,North,0,0.0,5.0,80,0.00,,,0.00,,2013-05-11 11:32:00,
2013-05-11 07:42:00,66.0,60.0,29.86,North,0,0.0,3.0,81,0.00,,,0.00,,2013-05-11 11:42:00,
2013-05-11 07:51:00,66.0,60.0,29.86,North,0,0.0,3.0,81,0.00,,,0.00,,2013-05-11 11:51:00,
2013-05-11 08:01:00,66.0,60.0,29.86,South,174,2.0,5.0,81,0.00,,,0.00,,2013-05-11 12:01:00,
2013-05-11 08:11:00,66.0,60.0,29.86,South,174,2.0,5.0,81,0.00,,,0.00,,2013-05-11 12:11:00,
2013-05-11 08:22:00,66.0,60.0,29.86,North,0,0.0,5.0,81,0.00,,,0.00,,2013-05-11 12:22:00,
2013-05-11 08:32:00,66.0,61.0,29.86,WSW,243,3.0,5.0,83,0.00,,,0.00,,2013-05-11 12:32:00,
2013-05-11 08:42:00,66.0,61.0,29.86,WSW,243,3.0,5.0,83,0.00,,,0.00,,2013-05-11 12:42:00,
2013-05-11 08:51:00,66.0,61.0,29.86,WSW,243,3.0,5.0,83,0.00,,,0.00,,2013-05-11 12:51:00,
2013-05-11 09:02:00,67.0,62.0,29.86,North,0,0.0,5.0,83,0.00,,,0.00,,2013-05-11 13:02:00,
2013-05-11 09:11:00,67.0,62.0,29.86,North,0,0.0,5.0,83,0.00,,,0.00,,2013-05-11 13:11:00,
2013-05-11 09:21:00,68.0,62.0,29.85,SSW,202,1.0,5.0,82,0.00,,,0.00,,2013-05-11 13:21:00,
2013-05-11 09:32:00,69.0,63.0,29.85,SSE,158,2.0,4.0,82,0.00,,,0.00,,2013-05-11 13:32:00,
2013-05-11 09:42:00,69.0,63.0,29.85,SSW,213,2.0,5.0,81,0.00,,,0.00,,2013-05-11 13:42:00,
2013-05-11 09:52:00,69.0,63.0,29.85,SSW,213,2.0,5.0,81,0.00,,,0.00,,2013-05-11 13:52:00,
2013-05-11 10:02:00,72.0,64.0,29.84,SE,144,2.0,10.0,77,0.00,,,0.00,,2013-05-11 14:02:00,
2013-05-11 10:11:00,72.0,64.0,29.84,SE,144,2.0,10.0,77,0.00,,,0.00,,2013-05-11 14:11:00,
2013-05-11 10:21:00,73.0,64.0,29.84,North,0,0.0,6.0,74,0.00,,,0.00,,2013-05-11 14:21:00,
2013-05-11 10:32:00,74.0,64.0,29.84,SE,143,4.0,10.0,71,0.00,,,0.00,,2013-05-11 14:32:00,
2013-05-11 10:42:00,74.0,64.0,29.83,South,182,2.0,7.0,71,0.00,,,0.00,,2013-05-11 14:42:00,
2013-05-11 10:51:00,74.0,64.0,29.83,South,182,2.0,7.0,71,0.00,,,0.00,,2013-05-11 14:51:00,
2013-05-11 11:01:00,75.0,65.0,29.83,SE,141,4.0,9.0,70,0.00,,,0.00,,2013-05-11 15:01:00,
2013-05-11 11:11:00,77.0,65.0,29.82,SSE,153,2.0,10.0,67,0.00,,,0.00,,2013-05-11 15:11:00,
2013-05-11 11:21:00,77.0,65.0,29.82,SSE,153,2.0,10.0,67,0.00,,,0.00,,2013-05-11 15:21:00,
2013-05-11 11:32:00,78.0,66.0,29.82,SSE,160,3.0,12.0,66,0.00,,,0.00,,2013-05-11 15:32:00,
2013-05-11 11:43:00,79.0,66.0,29.82,North,0,0.0,8.0,65,0.00,,,0.00,,2013-05-11 15:43:00,
2013-05-11 11:53:00,79.0,66.0,29.82,North,0,0.0,8.0,65,0.00,,,0.00,,2013-05-11 15:53:00,
2013-05-11 12:03:00,78.0,64.0,29.81,SSE,162,4.0,18.0,62,0.00,,,0.00,,2013-05-11 16:03:00,
2013-05-11 12:12:00,78.0,64.0,29.81,SSE,162,4.0,18.0,62,0.00,,,0.00,,2013-05-11 16:12:00,
2013-05-11 12:23:00,79.0,65.0,29.82,SE,135,5.0,12.0,62,0.00,,,0.00,,2013-05-11 16:23:00,
2013-05-11 12:33:00,78.0,65.0,29.81,SSE,148,3.0,7.0,64,0.00,,,0.00,,2013-05-11 16:33:00,
2013-05-11 12:42:00,79.0,65.0,29.81,South,174,2.0,11.0,63,0.00,,,0.00,,2013-05-11 16:42:00,
2013-05-11 12:52:00,79.0,65.0,29.81,South,174,2.0,11.0,63,0.00,,,0.00,,2013-05-11 16:52:00,
2013-05-11 13:02:00,78.0,66.0,29.80,SE,140,1.0,12.0,67,0.00,,,0.00,,2013-05-11 17:02:00,
2013-05-11 13:12:00,78.0,66.0,29.80,SE,140,1.0,12.0,67,0.00,,,0.00,,2013-05-11 17:12:00,
2013-05-11 13:22:00,77.0,64.0,29.80,North,0,0.0,9.0,65,0.00,,,0.00,,2013-05-11 17:22:00,
2013-05-11 13:32:00,77.0,66.0,29.80,SE,143,1.0,7.0,68,0.00,,,0.00,,2013-05-11 17:32:00,
2013-05-11 13:42:00,79.0,66.0,29.79,SSE,148,1.0,7.0,65,0.00,,,0.00,,2013-05-11 17:42:00,
2013-05-11 13:52:00,79.0,66.0,29.79,SSE,148,1.0,7.0,65,0.00,,,0.00,,2013-05-11 17:52:00,
2013-05-11 14:01:00,78.0,65.0,29.78,North,0,0.0,10.0,65,0.00,,,0.00,,2013-05-11 18:01:00,
2013-05-11 14:12:00,79.0,67.0,29.78,SSE,148,4.0,9.0,67,0.00,,,0.00,,2013-05-11 18:12:00,
2013-05-11 14:21:00,79.0,67.0,29.78,SSE,148,4.0,9.0,67,0.00,,,0.00,,2013-05-11 18:21:00,
2013-05-11 14:32:00,79.0,65.0,29.78,North,0,0.0,7.0,63,0.00,,,0.00,,2013-05-11 18:32:00,
2013-05-11 14:42:00,79.0,67.0,29.77,SE,129,1.0,5.0,67,0.00,,,0.00,,2013-05-11 18:42:00,
2013-05-11 14:52:00,79.0,67.0,29.77,SE,129,1.0,5.0,67,0.00,,,0.00,,2013-05-11 18:52:00,
2013-05-11 15:02:00,80.0,66.0,29.76,SSE,167,2.0,10.0,62,0.00,,,0.00,,2013-05-11 19:02:00,
2013-05-11 15:11:00,80.0,66.0,29.76,SSE,158,3.0,7.0,63,0.00,,,0.00,,2013-05-11 19:11:00,
2013-05-11 15:21:00,80.0,66.0,29.76,SSE,158,3.0,7.0,63,0.00,,,0.00,,2013-05-11 19:21:00,
2013-05-11 15:32:00,81.0,66.0,29.75,SSE,158,6.0,13.0,60,0.00,,,0.00,,2013-05-11 19:32:00,
2013-05-11 15:42:00,80.0,65.0,29.75,SE,141,1.0,6.0,61,0.00,,,0.00,,2013-05-11 19:42:00,
2013-05-11 15:52:00,80.0,65.0,29.75,SE,141,1.0,6.0,61,0.00,,,0.00,,2013-05-11 19:52:00,
2013-05-11 16:02:00,79.0,66.0,29.74,South,186,1.0,9.0,64,0.00,,,0.00,,2013-05-11 20:02:00,
2013-05-11 16:12:00,79.0,66.0,29.74,South,186,1.0,9.0,64,0.00,,,0.00,,2013-05-11 20:12:00,
2013-05-11 16:22:00,76.0,66.0,29.75,North,0,0.0,3.0,71,0.00,,,0.00,,2013-05-11 20:22:00,
2013-05-11 16:32:00,72.0,65.0,29.75,SE,138,2.0,6.0,79,0.00,,,0.00,,2013-05-11 20:32:00,
2013-05-11 16:42:00,70.0,66.0,29.76,North,0,0.0,3.0,86,0.09,,,0.09,,2013-05-11 20:42:00,
2013-05-11 16:52:00,70.0,66.0,29.76,North,0,0.0,3.0,86,0.09,,,0.09,,2013-05-11 20:52:00,
2013-05-11 17:02:00,67.0,65.0,29.78,SE,144,2.0,4.0,94,0.21,,,0.21,,2013-05-11 21:02:00,
2013-05-11 17:11:00,67.0,65.0,29.78,SSE,147,1.0,3.0,94,0.25,,,0.25,,2013-05-11 21:11:00,
2013-05-11 17:22:00,67.0,65.0,29.78,SSE,147,1.0,3.0,94,0.25,,,0.25,,2013-05-11 21:22:00,
2013-05-11 17:33:00,68.0,67.0,29.75,North,0,0.0,1.0,96,0.25,,,0.25,,2013-05-11 21:33:00,
2013-05-11 17:43:00,68.0,67.0,29.75,North,0,0.0,1.0,96,0.25,,,0.25,,2013-05-11 21:43:00,
2013-05-11 17:52:00,68.0,67.0,29.75,North,0,0.0,1.0,96,0.25,,,0.25,,2013-05-11 21:52:00,
2013-05-11 18:02:00,69.0,67.0,29.75,North,0,0.0,2.0,94,0.04,,,0.25,,2013-05-11 22:02:00,
2013-05-11 18:13:00,69.0,67.0,29.75,North,0,0.0,1.0,94,0.00,,,0.25,,2013-05-11 22:13:00,
2013-05-11 18:23:00,69.0,67.0,29.75,North,0,0.0,1.0,94,0.00,,,0.25,,2013-05-11 22:23:00,
2013-05-11 18:33:00,69.0,68.0,29.75,North,0,0.0,1.0,95,0.00,,,0.25,,2013-05-11 22:33:00,
2013-05-11 18:42:00,69.0,67.0,29.74,North,0,0.0,0.0,94,0.00,,,0.25,,2013-05-11 22:42:00,
2013-05-11 18:52:00,69.0,67.0,29.74,North,0,0.0,0.0,94,0.00,,,0.25,,2013-05-11 22:52:00,
2013-05-11 19:02:00,69.0,67.0,29.73,North,0,0.0,0.0,94,0.00,,,0.25,,2013-05-11 23:02:00,
2013-05-11 19:12:00,70.0,68.0,29.73,North,0,0.0,2.0,93,0.00,,,0.25,,2013-05-11 23:12:00,
2013-05-11 19:22:00,70.0,68.0,29.73,North,0,0.0,2.0,93,0.00,,,0.25,,2013-05-11 23:22:00,
2013-05-11 19:32:00,70.0,67.0,29.73,North,0,0.0,0.0,91,0.00,,,0.25,,2013-05-11 23:32:00,
2013-05-11 19:42:00,69.0,66.0,29.73,North,0,0.0,1.0,91,0.00,,,0.25,,2013-05-11 23:42:00,
2013-05-11 19:52:00,69.0,66.0,29.73,North,0,0.0,1.0,91,0.00,,,0.25,,2013-05-11 23:52:00,
2013-05-11 20:01:00,68.0,66.0,29.74,North,0,0.0,0.0,94,0.00,,,0.25,,2013-05-12 00:01:00,
2013-05-11 20:12:00,68.0,66.0,29.74,North,0,0.0,0.0,94,0.00,,,0.25,,2013-05-12 00:12:00,
2013-05-11 20:21:00,68.0,67.0,29.75,North,0,0.0,0.0,95,0.00,,,0.25,,2013-05-12 00:21:00,
2013-05-11 20:32:00,67.0,66.0,29.75,North,0,0.0,0.0,96,0.00,,,0.25,,2013-05-12 00:32:00,
2013-05-11 20:42:00,66.0,65.0,29.75,North,0,0.0,0.0,96,0.00,,,0.25,,2013-05-12 00:42:00,
2013-05-11 20:52:00,66.0,65.0,29.75,North,0,0.0,0.0,96,0.00,,,0.25,,2013-05-12 00:52:00,
2013-05-11 21:01:00,66.0,65.0,29.75,North,0,0.0,0.0,97,0.00,,,0.25,,2013-05-12 01:01:00,
2013-05-11 21:11:00,66.0,65.0,29.75,North,0,0.0,0.0,97,0.00,,,0.25,,2013-05-12 01:11:00,
2013-05-11 21:21:00,66.0,65.0,29.75,North,0,0.0,0.0,97,0.00,,,0.25,,2013-05-12 01:21:00,
2013-05-11 21:32:00,65.0,64.0,29.75,North,0,0.0,0.0,98,0.00,,,0.25,,2013-05-12 01:32:00,
2013-05-11 21:42:00,65.0,64.0,29.75,North,0,0.0,0.0,98,0.00,,,0.25,,2013-05-12 01:42:00,
2013-05-11 21:52:00,65.0,64.0,29.75,North,0,0.0,0.0,98,0.00,,,0.25,,2013-05-12 01:52:00,
2013-05-11 22:01:00,66.0,65.0,29.75,North,0,0.0,0.0,98,0.00,,,0.25,,2013-05-12 02:01:00,
2013-05-11 22:11:00,66.0,65.0,29.75,North,0,0.0,0.0,98,0.00,,,0.25,,2013-05-12 02:11:00,
2013-05-11 22:22:00,66.0,65.0,29.75,North,0,0.0,0.0,98,0.00,,,0.25,,2013-05-12 02:22:00,
2013-05-11 22:32:00,66.0,65.0,29.76,North,0,0.0,2.0,98,0.00,,,0.25,,2013-05-12 02:32:00,
2013-05-11 22:42:00,66.0,65.0,29.76,North,0,0.0,2.0,98,0.00,,,0.25,,2013-05-12 02:42:00,
2013-05-11 22:52:00,66.0,65.0,29.76,North,0,0.0,2.0,98,0.00,,,0.25,,2013-05-12 02:52:00,
2013-05-11 23:01:00,66.0,65.0,29.76,North,0,0.0,5.0,98,0.00,,,0.25,,2013-05-12 03:01:00,
2013-05-11 23:11:00,66.0,65.0,29.77,North,0,0.0,0.0,98,0.00,,,0.25,,2013-05-12 03:11:00,
2013-05-11 23:22:00,66.0,65.0,29.77,North,0,0.0,0.0,98,0.00,,,0.25,,2013-05-12 03:22:00,
2013-05-11 23:33:00,66.0,65.0,29.75,North,0,0.0,0.0,98,0.00,,,0.25,,2013-05-12 03:33:00,
2013-05-11 23:43:00,66.0,65.0,29.75,North,0,0.0,0.0,98,0.00,,,0.25,,2013-05-12 03:43:00,
2013-05-11 23:53:00,66.0,65.0,29.75,North,0,0.0,0.0,97,0.00,,,0.25,,2013-05-12 03:53:00,